DLH712 EDDF-RKSI

Flight info

Callsign DLH712
Flight time N/A
Altitude 31000
Route SULUS7S SULUS Z650 VEMUT/N0489F370 DCT PEPIK DCT BUDOP DCT DINRO N743 UDROS UM859 KARDE UN644 ROLIN/N0490F390 DCT TAGAR DCT BT DCT BARAD M747 SUBUT T916 BALUN/K0898F390 T916 PIGAL M610 RULAD/K0878S1190 A343 NLT/K0889S1250 A343 POSOT B215 FKG W188 LIKMI W270 DKO W69 HUR B339 LADIX W34 VAPGU W100 ORAVA W201 UNSEK A326 DONVO G597 AGAVO/N0443F290 Y644 REBIT REBIT1Y
Aircraft A359/H-SADE2E3GHIJ1J2J3J4J5M1P2RWXYZ/LB1D1

Departure

Time 2026-05-07 18:04
Airport Frankfurt Main Airport (EDDF)

Arrival

Time N/A
Airport Incheon International Airport (RKSI)
Time Latitude Longitude Altitude Speed Heading
2026-05-07 17:30 50.04653 8.57055 198 ft 0 kts 91°
2026-05-07 17:48 50.04653 8.57046 368 ft 4 kts 91°
2026-05-07 17:49 50.04653 8.57005 366 ft 3 kts 91°
2026-05-07 17:49 50.04655 8.56971 367 ft 4 kts 115°
2026-05-07 17:49 50.04670 8.56950 365 ft 4 kts 186°
2026-05-07 17:49 50.04680 8.56953 368 ft 3 kts 204°
2026-05-07 17:50 50.04660 8.56939 368 ft 0 kts 204°
2026-05-07 17:56 50.04624 8.56919 366 ft 9 kts 197°
2026-05-07 17:56 50.04563 8.56894 367 ft 8 kts 193°
2026-05-07 17:56 50.04488 8.56861 369 ft 13 kts 206°
2026-05-07 17:57 50.04429 8.56728 371 ft 20 kts 249°
2026-05-07 17:57 50.04394 8.56585 369 ft 22 kts 250°
2026-05-07 17:57 50.04321 8.56278 366 ft 23 kts 250°
2026-05-07 17:57 50.04264 8.56038 365 ft 24 kts 250°
2026-05-07 17:58 50.04204 8.55788 363 ft 25 kts 250°
2026-05-07 17:58 50.04143 8.55531 365 ft 26 kts 249°
2026-05-07 17:58 50.04080 8.55271 367 ft 25 kts 249°
2026-05-07 17:58 50.04019 8.55015 368 ft 25 kts 250°
2026-05-07 17:59 50.03956 8.54750 361 ft 27 kts 250°
2026-05-07 17:59 50.03889 8.54472 360 ft 28 kts 250°
2026-05-07 17:59 50.03796 8.54203 360 ft 29 kts 244°
2026-05-07 17:59 50.03724 8.53914 355 ft 29 kts 250°
2026-05-07 18:00 50.03653 8.53617 350 ft 30 kts 250°
2026-05-07 18:00 50.03580 8.53314 353 ft 30 kts 249°
2026-05-07 18:00 50.03516 8.53049 355 ft 26 kts 249°
2026-05-07 18:00 50.03467 8.52856 354 ft 17 kts 247°
2026-05-07 18:01 50.03437 8.52743 353 ft 0 kts 248°
2026-05-07 18:02 50.03411 8.52645 341 ft 11 kts 241°
2026-05-07 18:02 50.03344 8.52597 344 ft 11 kts 187°
2026-05-07 18:02 50.03315 8.52595 343 ft 0 kts 180°
2026-05-07 18:03 50.03250 8.52595 350 ft 39 kts 180°
2026-05-07 18:04 50.02685 8.52603 350 ft 121 kts 179°
2026-05-07 18:04 50.01606 8.52612 417 ft 180 kts 180°
2026-05-07 18:04 50.00340 8.52614 1287 ft 181 kts 179°
2026-05-07 18:04 49.99098 8.52620 2286 ft 178 kts 179°
2026-05-07 18:05 49.97842 8.52658 2671 ft 188 kts 176°
2026-05-07 18:05 49.96558 8.53351 2818 ft 208 kts 142°
2026-05-07 18:05 49.95630 8.55174 2993 ft 225 kts 118°
2026-05-07 18:05 49.94870 8.57346 3488 ft 232 kts 117°
2026-05-07 18:06 49.94199 8.59634 3884 ft 234 kts 105°
2026-05-07 18:06 49.93939 8.62199 3983 ft 253 kts 92°
2026-05-07 18:06 49.93841 8.65003 4008 ft 265 kts 91°
2026-05-07 18:06 49.93663 8.67879 4410 ft 271 kts 102°
2026-05-07 18:07 49.92801 8.70457 5058 ft 273 kts 134°
2026-05-07 18:07 49.91334 8.72333 5734 ft 275 kts 145°
2026-05-07 18:07 49.89760 8.74043 6411 ft 277 kts 146°
2026-05-07 18:07 49.88326 8.76061 7049 ft 281 kts 127°
2026-05-07 18:08 49.87272 8.78610 7736 ft 283 kts 120°
2026-05-07 18:08 49.86309 8.81293 8414 ft 286 kts 119°
2026-05-07 18:08 49.85352 8.84009 9109 ft 289 kts 118°
2026-05-07 18:08 49.84645 8.86953 9795 ft 293 kts 101°
2026-05-07 18:09 49.84360 8.90106 10354 ft 301 kts 95°
2026-05-07 18:09 49.84247 8.93442 10635 ft 319 kts 91°
2026-05-07 18:09 49.84247 8.96934 10900 ft 337 kts 89°
2026-05-07 18:09 49.84301 9.00647 11178 ft 353 kts 88°
2026-05-07 18:10 49.84366 9.04523 11597 ft 364 kts 88°
2026-05-07 18:10 49.84423 9.08469 12202 ft 369 kts 88°
2026-05-07 18:10 49.84465 9.12469 12846 ft 373 kts 89°
2026-05-07 18:10 49.84493 9.16509 13451 ft 377 kts 89°
2026-05-07 18:11 49.84512 9.20586 14058 ft 381 kts 89°
2026-05-07 18:11 49.84521 9.23317 14419 ft 384 kts 89°
2026-05-07 18:11 49.84535 9.28883 15143 ft 388 kts 89°
2026-05-07 18:11 49.84544 9.33086 15704 ft 392 kts 89°
2026-05-07 18:12 49.84552 9.37320 16253 ft 395 kts 89°
2026-05-07 18:12 49.84559 9.41588 16799 ft 398 kts 89°
2026-05-07 18:12 49.84566 9.45904 17343 ft 402 kts 89°
2026-05-07 18:12 49.84571 9.50248 17902 ft 405 kts 89°
2026-05-07 18:13 49.84574 9.54631 18440 ft 409 kts 90°
2026-05-07 18:13 49.84575 9.59054 18912 ft 413 kts 89°
2026-05-07 18:13 49.84575 9.63519 19433 ft 415 kts 90°
2026-05-07 18:13 49.84573 9.68006 19988 ft 418 kts 90°
2026-05-07 18:14 49.84570 9.72517 20523 ft 420 kts 90°
2026-05-07 18:14 49.84564 9.77048 21053 ft 422 kts 90°
2026-05-07 18:14 49.84557 9.81619 21562 ft 425 kts 90°
2026-05-07 18:14 49.84548 9.86214 22074 ft 428 kts 90°
2026-05-07 18:15 49.84538 9.90841 22592 ft 431 kts 90°
2026-05-07 18:15 49.84525 9.95493 23103 ft 433 kts 90°
2026-05-07 18:15 49.84515 9.98585 23446 ft 435 kts 90°
2026-05-07 18:15 49.84499 10.03285 23928 ft 437 kts 90°
2026-05-07 18:16 49.84481 10.07997 24383 ft 438 kts 90°
2026-05-07 18:16 49.84461 10.12734 24774 ft 442 kts 90°
2026-05-07 18:16 49.84439 10.17501 25176 ft 444 kts 90°
2026-05-07 18:16 49.84415 10.22306 25585 ft 447 kts 90°
2026-05-07 18:17 49.84388 10.27136 25994 ft 450 kts 90°
2026-05-07 18:17 49.84360 10.31998 26389 ft 452 kts 90°
2026-05-07 18:17 49.84329 10.36877 26794 ft 455 kts 90°
2026-05-07 18:17 49.84296 10.41783 27186 ft 458 kts 90°
2026-05-07 18:18 49.84261 10.46735 27582 ft 460 kts 90°
2026-05-07 18:18 49.84223 10.51705 27948 ft 463 kts 90°
2026-05-07 18:18 49.84183 10.56701 28321 ft 466 kts 90°
2026-05-07 18:18 49.84141 10.61738 28704 ft 468 kts 90°
2026-05-07 18:19 49.84096 10.66782 29073 ft 470 kts 90°
2026-05-07 18:19 49.84049 10.71855 29424 ft 473 kts 90°
2026-05-07 18:19 49.84000 10.76972 29781 ft 475 kts 90°
2026-05-07 18:19 49.83947 10.82103 30107 ft 478 kts 90°
2026-05-07 18:20 49.83893 10.87256 30375 ft 480 kts 90°
2026-05-07 18:20 49.83835 10.92445 30643 ft 482 kts 90°
2026-05-07 18:20 49.83775 10.97651 30901 ft 485 kts 90°
2026-05-07 18:20 49.83712 11.02872 31031 ft 480 kts 91°
2026-05-07 18:21 49.83649 11.07957 31051 ft 465 kts 91°
2026-05-07 18:21 49.83519 11.17846 31046 ft 458 kts 91°
2026-05-07 18:22 49.83381 11.27714 31045 ft 458 kts 91°
2026-05-07 18:22 49.83236 11.37577 31043 ft 458 kts 91°
2026-05-07 18:23 49.83081 11.47450 31048 ft 458 kts 91°
2026-05-07 18:23 49.82919 11.57321 31039 ft 458 kts 91°
2026-05-07 18:24 49.82748 11.67193 31040 ft 458 kts 91°
2026-05-07 18:24 49.82569 11.77050 31042 ft 457 kts 91°
2026-05-07 18:25 49.82382 11.86869 31039 ft 456 kts 91°
2026-05-07 18:25 49.82187 11.96697 31037 ft 457 kts 91°
2026-05-07 18:26 49.81985 12.06476 31035 ft 457 kts 91°
2026-05-07 18:26 49.81773 12.16321 31037 ft 457 kts 91°
2026-05-07 18:27 49.81552 12.26154 31036 ft 457 kts 91°
2026-05-07 18:27 49.81324 12.35992 31038 ft 459 kts 91°
2026-05-07 18:28 49.80889 12.45887 31164 ft 465 kts 100°
2026-05-07 18:28 49.80144 12.50781 31267 ft 470 kts 105°